Time,TemperatureF,DewpointF,PressureIn,WindDirection,WindDirectionDegrees,WindSpeedMPH,WindSpeedGustMPH,Humidity,HourlyPrecipIn,Conditions,Clouds,dailyrainin,SolarRadiationWatts/m^2,SoftwareType,DateUTC
2013-02-15 00:01:00,54.0,24.0,-100.00,ENE,59,7.0,12.0,31,0.00,,,0.00,0.000000,,2013-02-15 08:01:00,
2013-02-15 00:11:00,54.0,24.0,-100.00,ENE,59,7.0,12.0,31,0.00,,,0.00,0.000000,,2013-02-15 08:11:00,
2013-02-15 00:32:00,57.0,22.0,-100.00,ENE,78,10.0,18.0,26,0.00,,,0.00,0.000000,,2013-02-15 08:32:00,
2013-02-15 00:42:00,57.0,22.0,-100.00,ENE,78,10.0,18.0,26,0.00,,,0.00,0.000000,,2013-02-15 08:42:00,
2013-02-15 00:53:00,57.0,22.0,-100.00,ENE,78,10.0,18.0,26,0.00,,,0.00,0.000000,,2013-02-15 08:53:00,
2013-02-15 01:01:00,57.0,22.0,-100.00,ENE,78,10.0,18.0,26,0.00,,,0.00,0.000000,,2013-02-15 09:01:00,
2013-02-15 01:12:00,57.0,22.0,-100.00,ENE,78,10.0,18.0,26,0.00,,,0.00,0.000000,,2013-02-15 09:12:00,
2013-02-15 01:42:00,54.0,24.0,-100.00,NE,54,7.0,17.0,31,0.00,,,0.00,0.000000,,2013-02-15 09:42:00,
2013-02-15 01:52:00,54.0,24.0,-100.00,NE,54,7.0,17.0,31,0.00,,,0.00,0.000000,,2013-02-15 09:52:00,
2013-02-15 02:01:00,54.0,24.0,-100.00,NE,54,7.0,17.0,31,0.00,,,0.00,0.000000,,2013-02-15 10:01:00,
2013-02-15 02:11:00,54.0,24.0,-100.00,NE,54,7.0,17.0,31,0.00,,,0.00,0.000000,,2013-02-15 10:11:00,
2013-02-15 02:42:00,56.0,23.0,-100.00,ENE,68,7.0,17.0,27,0.00,,,0.00,0.000000,,2013-02-15 10:42:00,
2013-02-15 02:52:00,56.0,23.0,-100.00,ENE,68,7.0,17.0,27,0.00,,,0.00,0.000000,,2013-02-15 10:52:00,
2013-02-15 03:01:00,56.0,23.0,-100.00,ENE,68,7.0,17.0,27,0.00,,,0.00,0.000000,,2013-02-15 11:01:00,
2013-02-15 03:11:00,56.0,23.0,-100.00,ENE,68,7.0,17.0,27,0.00,,,0.00,0.000000,,2013-02-15 11:11:00,
2013-02-15 03:32:00,56.0,23.0,-100.00,ENE,71,10.0,15.0,27,0.00,,,0.00,0.000000,,2013-02-15 11:32:00,
2013-02-15 03:42:00,56.0,23.0,-100.00,ENE,71,10.0,15.0,27,0.00,,,0.00,0.000000,,2013-02-15 11:42:00,
2013-02-15 03:52:00,56.0,23.0,-100.00,ENE,71,10.0,15.0,27,0.00,,,0.00,0.000000,,2013-02-15 11:52:00,
2013-02-15 04:01:00,56.0,23.0,-100.00,ENE,71,10.0,15.0,27,0.00,,,0.00,0.000000,,2013-02-15 12:01:00,
2013-02-15 04:11:00,56.0,23.0,-100.00,ENE,71,10.0,15.0,27,0.00,,,0.00,0.000000,,2013-02-15 12:11:00,
2013-02-15 04:32:00,55.0,22.0,-100.00,ENE,68,10.0,17.0,27,0.00,,,0.00,0.000000,,2013-02-15 12:32:00,
2013-02-15 04:42:00,55.0,22.0,-100.00,ENE,68,10.0,17.0,27,0.00,,,0.00,0.000000,,2013-02-15 12:42:00,
2013-02-15 04:52:00,55.0,22.0,-100.00,ENE,68,10.0,17.0,27,0.00,,,0.00,0.000000,,2013-02-15 12:52:00,
2013-02-15 05:02:00,55.0,22.0,-100.00,ENE,68,10.0,17.0,27,0.00,,,0.00,0.000000,,2013-02-15 13:02:00,
2013-02-15 05:11:00,55.0,22.0,-100.00,ENE,68,10.0,17.0,27,0.00,,,0.00,0.000000,,2013-02-15 13:11:00,
2013-02-15 05:42:00,55.0,21.0,-100.00,ENE,60,12.0,20.0,26,0.00,,,-99.99,0.000000,,2013-02-15 13:42:00,
2013-02-15 05:52:00,55.0,21.0,-100.00,ENE,60,12.0,20.0,26,0.00,,,-99.99,0.000000,,2013-02-15 13:52:00,
2013-02-15 06:01:00,55.0,21.0,-100.00,ENE,60,12.0,20.0,26,0.00,,,-99.99,0.000000,,2013-02-15 14:01:00,
2013-02-15 06:11:00,55.0,21.0,-100.00,ENE,60,12.0,20.0,26,0.00,,,-99.99,0.000000,,2013-02-15 14:11:00,
2013-02-15 06:42:00,56.0,19.0,-100.00,ENE,75,13.0,23.0,23,0.00,,,0.00,0.000000,,2013-02-15 14:42:00,
2013-02-15 06:52:00,56.0,19.0,-100.00,ENE,75,13.0,23.0,23,0.00,,,0.00,0.000000,,2013-02-15 14:52:00,
2013-02-15 07:01:00,56.0,19.0,-100.00,ENE,75,13.0,23.0,23,0.00,,,0.00,0.000000,,2013-02-15 15:01:00,
2013-02-15 07:11:00,56.0,19.0,-100.00,ENE,75,13.0,23.0,23,0.00,,,0.00,0.000000,,2013-02-15 15:11:00,
2013-02-15 07:32:00,57.0,16.0,-100.00,East,79,17.0,29.0,20,0.00,,,0.00,20.000000,,2013-02-15 15:32:00,
2013-02-15 07:42:00,57.0,16.0,-100.00,East,79,17.0,29.0,20,0.00,,,0.00,20.000000,,2013-02-15 15:42:00,
2013-02-15 07:52:00,57.0,16.0,-100.00,East,79,17.0,29.0,20,0.00,,,0.00,20.000000,,2013-02-15 15:52:00,
2013-02-15 08:01:00,57.0,16.0,-100.00,East,79,17.0,29.0,20,0.00,,,0.00,20.000000,,2013-02-15 16:01:00,
2013-02-15 08:11:00,57.0,16.0,-100.00,East,79,17.0,29.0,20,0.00,,,0.00,20.000000,,2013-02-15 16:11:00,
2013-02-15 08:32:00,61.0,13.0,-100.00,East,89,19.0,35.0,15,0.00,,,0.00,185.000000,,2013-02-15 16:32:00,
2013-02-15 08:43:00,61.0,13.0,-100.00,East,89,19.0,35.0,15,0.00,,,0.00,185.000000,,2013-02-15 16:43:00,
2013-02-15 08:52:00,61.0,13.0,-100.00,East,89,19.0,35.0,15,0.00,,,0.00,185.000000,,2013-02-15 16:52:00,
2013-02-15 09:01:00,61.0,13.0,-100.00,East,89,19.0,35.0,15,0.00,,,0.00,185.000000,,2013-02-15 17:01:00,
2013-02-15 09:32:00,63.0,11.0,-100.00,East,89,19.0,35.0,13,0.00,,,0.00,359.000000,,2013-02-15 17:32:00,
2013-02-15 09:42:00,63.0,11.0,-100.00,East,89,19.0,35.0,13,0.00,,,0.00,359.000000,,2013-02-15 17:42:00,
2013-02-15 09:52:00,63.0,11.0,-100.00,East,89,19.0,35.0,13,0.00,,,0.00,359.000000,,2013-02-15 17:52:00,
2013-02-15 10:01:00,63.0,11.0,-100.00,East,89,19.0,35.0,13,0.00,,,0.00,359.000000,,2013-02-15 18:01:00,
2013-02-15 10:42:00,64.0,12.0,-100.00,East,93,20.0,35.0,13,0.00,,,0.00,500.000000,,2013-02-15 18:42:00,
2013-02-15 10:52:00,64.0,12.0,-100.00,East,93,20.0,35.0,13,0.00,,,0.00,500.000000,,2013-02-15 18:52:00,
2013-02-15 11:01:00,64.0,12.0,-100.00,East,93,20.0,35.0,13,0.00,,,0.00,500.000000,,2013-02-15 19:01:00,
2013-02-15 11:42:00,65.0,15.0,-100.00,East,94,20.0,41.0,14,0.00,,,0.00,616.000000,,2013-02-15 19:42:00,
2013-02-15 11:52:00,65.0,15.0,-100.00,East,94,20.0,41.0,14,0.00,,,0.00,616.000000,,2013-02-15 19:52:00,
2013-02-15 12:01:00,65.0,15.0,-100.00,East,94,20.0,41.0,14,0.00,,,0.00,616.000000,,2013-02-15 20:01:00,
2013-02-15 12:11:00,65.0,15.0,-100.00,East,94,20.0,41.0,14,0.00,,,0.00,616.000000,,2013-02-15 20:11:00,
2013-02-15 12:42:00,66.0,17.0,-100.00,East,97,18.0,33.0,15,0.00,,,0.00,647.000000,,2013-02-15 20:42:00,
2013-02-15 12:52:00,66.0,17.0,-100.00,East,97,18.0,33.0,15,0.00,,,0.00,647.000000,,2013-02-15 20:52:00,
2013-02-15 13:01:00,66.0,17.0,-100.00,East,97,18.0,33.0,15,0.00,,,0.00,647.000000,,2013-02-15 21:01:00,
2013-02-15 13:11:00,66.0,17.0,-100.00,East,97,18.0,33.0,15,0.00,,,0.00,647.000000,,2013-02-15 21:11:00,
2013-02-15 13:42:00,67.0,15.0,-100.00,ESE,102,19.0,36.0,13,0.00,,,0.00,607.000000,,2013-02-15 21:42:00,
2013-02-15 13:52:00,67.0,15.0,-100.00,ESE,102,19.0,36.0,13,0.00,,,0.00,607.000000,,2013-02-15 21:52:00,
2013-02-15 14:02:00,67.0,15.0,-100.00,ESE,102,19.0,36.0,13,0.00,,,0.00,607.000000,,2013-02-15 22:02:00,
2013-02-15 14:11:00,67.0,15.0,-100.00,ESE,102,19.0,36.0,13,0.00,,,0.00,607.000000,,2013-02-15 22:11:00,
2013-02-15 14:42:00,68.0,15.0,-100.00,ESE,102,17.0,33.0,13,0.00,,,0.00,574.000000,,2013-02-15 22:42:00,
2013-02-15 14:52:00,68.0,15.0,-100.00,ESE,102,17.0,33.0,13,0.00,,,0.00,574.000000,,2013-02-15 22:52:00,
2013-02-15 15:02:00,68.0,15.0,-100.00,ESE,102,17.0,33.0,13,0.00,,,0.00,574.000000,,2013-02-15 23:02:00,
2013-02-15 15:11:00,68.0,15.0,-100.00,ESE,102,17.0,33.0,13,0.00,,,0.00,574.000000,,2013-02-15 23:11:00,
2013-02-15 15:32:00,67.0,13.0,-100.00,East,101,16.0,30.0,12,0.00,,,0.00,372.000000,,2013-02-15 23:32:00,
2013-02-15 15:42:00,67.0,13.0,-100.00,East,101,16.0,30.0,12,0.00,,,0.00,372.000000,,2013-02-15 23:42:00,
2013-02-15 15:52:00,67.0,13.0,-100.00,East,101,16.0,30.0,12,0.00,,,0.00,372.000000,,2013-02-15 23:52:00,
2013-02-15 16:02:00,67.0,13.0,-100.00,East,101,16.0,30.0,12,0.00,,,0.00,372.000000,,2013-02-16 00:02:00,
2013-02-15 16:32:00,67.0,9.0,-100.00,East,96,13.0,26.0,10,0.00,,,0.00,185.000000,,2013-02-16 00:32:00,
2013-02-15 16:42:00,67.0,9.0,-100.00,East,96,13.0,26.0,10,0.00,,,0.00,185.000000,,2013-02-16 00:42:00,
2013-02-15 16:52:00,67.0,9.0,-100.00,East,96,13.0,26.0,10,0.00,,,0.00,185.000000,,2013-02-16 00:52:00,
2013-02-15 17:02:00,67.0,9.0,-100.00,East,96,13.0,26.0,10,0.00,,,0.00,185.000000,,2013-02-16 01:02:00,
2013-02-15 17:32:00,64.0,10.0,-100.00,East,89,11.0,23.0,12,0.00,,,-99.99,72.000000,,2013-02-16 01:32:00,
2013-02-15 17:42:00,64.0,10.0,-100.00,East,89,11.0,23.0,12,0.00,,,-99.99,72.000000,,2013-02-16 01:42:00,
2013-02-15 17:52:00,64.0,10.0,-100.00,East,89,11.0,23.0,12,0.00,,,-99.99,72.000000,,2013-02-16 01:52:00,
2013-02-15 18:01:00,64.0,10.0,-100.00,East,89,11.0,23.0,12,0.00,,,-99.99,72.000000,,2013-02-16 02:01:00,
2013-02-15 18:42:00,62.0,11.0,-100.00,East,92,12.0,19.0,13,0.00,,,0.00,3.000000,,2013-02-16 02:42:00,
2013-02-15 18:52:00,62.0,11.0,-100.00,East,92,12.0,19.0,13,0.00,,,0.00,3.000000,,2013-02-16 02:52:00,
2013-02-15 19:01:00,62.0,11.0,-100.00,East,92,12.0,19.0,13,0.00,,,0.00,3.000000,,2013-02-16 03:01:00,
2013-02-15 19:11:00,62.0,11.0,-100.00,East,92,12.0,19.0,13,0.00,,,0.00,3.000000,,2013-02-16 03:11:00,
2013-02-15 19:42:00,61.0,13.0,-100.00,ENE,78,14.0,23.0,15,0.00,,,0.00,0.000000,,2013-02-16 03:42:00,
2013-02-15 19:52:00,61.0,13.0,-100.00,ENE,78,14.0,23.0,15,0.00,,,0.00,0.000000,,2013-02-16 03:52:00,
2013-02-15 20:01:00,61.0,13.0,-100.00,ENE,78,14.0,23.0,15,0.00,,,0.00,0.000000,,2013-02-16 04:01:00,
2013-02-15 20:11:00,61.0,13.0,-100.00,ENE,78,14.0,23.0,15,0.00,,,0.00,0.000000,,2013-02-16 04:11:00,
2013-02-15 20:32:00,60.0,14.0,-100.00,East,87,12.0,22.0,16,0.00,,,0.00,0.000000,,2013-02-16 04:32:00,
2013-02-15 20:42:00,60.0,14.0,-100.00,East,87,12.0,22.0,16,0.00,,,0.00,0.000000,,2013-02-16 04:42:00,
2013-02-15 20:52:00,60.0,14.0,-100.00,East,87,12.0,22.0,16,0.00,,,0.00,0.000000,,2013-02-16 04:52:00,
2013-02-15 21:01:00,60.0,14.0,-100.00,East,87,12.0,22.0,16,0.00,,,0.00,0.000000,,2013-02-16 05:01:00,
2013-02-15 21:11:00,60.0,14.0,-100.00,East,87,12.0,22.0,16,0.00,,,0.00,0.000000,,2013-02-16 05:11:00,
2013-02-15 21:32:00,58.0,15.0,-100.00,East,86,9.0,21.0,18,0.00,,,-99.99,0.000000,,2013-02-16 05:32:00,
2013-02-15 21:42:00,58.0,15.0,-100.00,East,86,9.0,21.0,18,0.00,,,-99.99,0.000000,,2013-02-16 05:42:00,
2013-02-15 21:52:00,58.0,15.0,-100.00,East,86,9.0,21.0,18,0.00,,,-99.99,0.000000,,2013-02-16 05:52:00,
2013-02-15 22:01:00,58.0,15.0,-100.00,East,86,9.0,21.0,18,0.00,,,-99.99,0.000000,,2013-02-16 06:01:00,
2013-02-15 22:11:00,58.0,15.0,-100.00,East,86,9.0,21.0,18,0.00,,,-99.99,0.000000,,2013-02-16 06:11:00,
2013-02-15 22:42:00,58.0,15.0,-100.00,East,82,10.0,19.0,18,0.00,,,0.00,0.000000,,2013-02-16 06:42:00,
2013-02-15 22:52:00,58.0,15.0,-100.00,East,82,10.0,19.0,18,0.00,,,0.00,0.000000,,2013-02-16 06:52:00,
2013-02-15 23:02:00,58.0,15.0,-100.00,East,82,10.0,19.0,18,0.00,,,0.00,0.000000,,2013-02-16 07:02:00,
2013-02-15 23:11:00,58.0,15.0,-100.00,East,82,10.0,19.0,18,0.00,,,0.00,0.000000,,2013-02-16 07:11:00,
2013-02-15 23:32:00,58.0,13.0,-100.00,East,85,10.0,19.0,17,0.00,,,0.00,0.000000,,2013-02-16 07:32:00,
2013-02-15 23:42:00,58.0,13.0,-100.00,East,85,10.0,19.0,17,0.00,,,0.00,0.000000,,2013-02-16 07:42:00,
2013-02-15 23:53:00,58.0,13.0,-100.00,East,85,10.0,19.0,17,0.00,,,0.00,0.000000,,2013-02-16 07:53:00,